Content
SEND FEEDBACK

Daily
Averages
Monthly
Summary
United States of America

OKLAHOMA CITY - LAKE HEFNER, OKLAHOMA


Home > North America > United States > Oklahoma
Elevation: 1210 feet     Latitude: 35 34N     Longitude: 097 37W

WEATHER
 
SELECT A DAY
Number of Records: 194,703;   Date Range: 1/1/95 - 7/29/14
 
SHARE

PRINT THIS DATA

[ ← Previous Day ]
WEATHER ALMANAC - FEBRUARY 13, 2013
[ Next Day → ]
[ °C ]   °F
Weather ElementAverageHighLow
Temperature34.8 °F52 °F (2:53 pm)30 °F (7:53 am)
Dewpoint28.7 °F35.1 °F (1:53 pm)23 °F (11:53 pm)
Humidity81 %100 % (6:04 am)36 % (4:53 pm)
Barometer30.05 in30.11 in (10:53 am)29.99 in (3:53 pm)
Wind Speed11.2 mph89.8 mph (6:19 am)
Wind Gust181.8 mph (4:53 am)
Weather ElementAverage
Visibility3.9 mi
Wind DirectionSSW (212.6 °)

Weather ElementTotal
Precipitation---
Heating Degree Days24 (Base 65)
Averaged from 38 records on February 13, 2013
WEATHER CONDITIONS BREAKOUT
WIND DIRECTION BREAKOUT
WEATHER BY HOUR - FEBRUARY 13, 2013
[ °C ]   °F
Local TimeTemperatureDewpointHumidityBarometerVisibilityWind DirectionWind SpeedGust SpeedPrecipitationEventsConditions
12:38 AM32.0 °F30.2 °F93 %30.05 in0.2 miNW (320°)5.8 mphFogFog
12:53 AM32.0 °F30.9 °F96 %30.08 in0.2 miNW (320°)4.6 mphFogFog
1:37 AM32.0 °F30.2 °F93 %30.06 in0.2 miWNW (290°)6.9 mphFogFog
1:53 AM32.0 °F30.0 °F92 %30.09 in0.2 miWNW (290°)6.9 mphFogFog
2:06 AM32.0 °F30.2 °F93 %30.06 in0.2 miWest (270°)6.9 mphFogFog
2:53 AM32.0 °F30.0 °F92 %30.09 in0.2 miWNW (290°)9.2 mphFogFog
3:19 AM32.0 °F30.2 °F93 %30.06 in0.5 miWest (280°)9.2 mph20.7 mphFogFog
3:53 AM32.0 °F30.0 °F92 %30.08 in1.0 miWest (280°)6.9 mphOvercast
4:00 AM32.0 °F30.2 °F93 %30.05 in0.8 miVariable5.8 mphOvercast
4:53 AM32.0 °F30.0 °F92 %30.07 in0.2 miSW (220°)11.5 mph181.8 mphFogFog
5:04 AM32.0 °F30.2 °F93 %30.04 in0.5 miSW (230°)8.1 mphFogFog
5:44 AM32.0 °F30.2 °F93 %30.04 in1.0 miSW (220°)10.4 mphOvercast
5:53 AM30.9 °F30.0 °F96 %30.07 in1.2 miSSW (210°)5.8 mph54.1 mphOvercast
6:04 AM30.2 °F30.2 °F100 %30.04 in0.8 miNNW (340°)42.6 mph62.1 mphOvercast
6:19 AM30.2 °F28.4 °F93 %30.04 in0.2 miNNW (330°)89.8 mph148.5 mphFogLight Freezing Fog
6:53 AM30.9 °F28.9 °F92 %30.08 in0.2 miNorthFogLight Freezing Fog
6:56 AM30.2 °F28.4 °F93 %30.05 in0.2 miSW (220°)11.5 mphFogLight Freezing Fog
7:53 AM30.0 °F28.9 °F96 %30.09 in0.2 miNorthFogLight Freezing Fog
8:20 AM30.2 °F28.4 °F93 %30.07 in1.2 miVariable6.9 mphScattered Clouds
8:44 AM30.2 °F28.4 °F93 %30.07 in2.5 miSSW (210°)12.7 mphPartly Cloudy
8:53 AM30.0 °F28.0 °F92 %30.09 in1.0 miSW (230°)13.8 mphMist
9:25 AM30.2 °F28.4 °F93 %30.07 in2.0 miSSW (210°)10.4 mphMostly Cloudy
9:41 AM32.0 °F28.4 °F87 %30.07 in3.0 miCalmScattered Clouds
9:53 AM30.9 °F28.0 °F89 %30.10 in4.0 miNorthPartly Cloudy
10:53 AM33.1 °F28.0 °F82 %30.11 in5.0 miWest (260°)9.2 mphHaze
11:53 AM35.1 °F28.0 °F76 %30.09 in6.0 miSW (230°)4.6 mphHaze
12:53 PM43.0 °F30.0 °F60 %30.06 in8.0 miSW (220°)10.4 mphClear
1:53 PM48.9 °F35.1 °F59 %30.03 in8.0 miWSW (250°)9.2 mphClear
2:53 PM52.0 °F30.9 °F45 %30.00 in10.0 miWSW (240°)11.5 mphClear
3:53 PM52.0 °F28.0 °F40 %29.99 in10.0 miWSW (250°)11.5 mphClear
4:53 PM51.1 °F25.0 °F36 %30.00 in10.0 miWSW (250°)9.2 mphClear
5:53 PM46.9 °F27.0 °F46 %29.99 in10.0 miWSW (250°)5.8 mphClear
6:53 PM39.0 °F26.1 °F60 %30.00 in10.0 miSW (230°)5.8 mphClear
7:53 PM37.9 °F24.1 °F57 %30.01 in10.0 miWSW (240°)5.8 mphClear
8:53 PM35.1 °F25.0 °F67 %30.02 in10.0 miSW (230°)5.8 mphClear
9:53 PM34.0 °F26.1 °F73 %30.03 in10.0 miSW (230°)5.8 mphClear
10:53 PM33.1 °F26.1 °F75 %30.03 in10.0 miSW (220°)4.6 mphClear
11:53 PM32.0 °F23.0 °F69 %30.03 in10.0 miSW (220°)6.9 mphClear
Hourly data recorded from KPWA, located miles away from Oklahoma City - Lake Hefner, Oklahoma







STORIES FROM OUR PARTNERS